Regional Weather Roundup
Issued by NWS

Home | Current Version | Previous Version | Text Only | Print | Product List | Glossary Off
Versions: 1 2 3 4 5 6 7 8 9 10 11 12 13 14 15 16 17 18 19 20 21 22 23 24 25 26 27 28 29 30 31 32 33 34 35 36 37 38 39 40 41 42 43 44 45 46 47 48 49 50

000
ASUS43 KLOT 050012
RWRIL

ILLINOIS REGIONAL WEATHER ROUNDUP
NATIONAL WEATHER SERVICE CHICAGO/ROMEOVILLE IL
700 PM CDT MON MAY 04 2015

NOTE: "FAIR" INDICATES FEW OR NO CLOUDS BELOW 12,000 FEET WITH NO
SIGNIFICANT WEATHER AND/OR OBSTRUCTIONS TO VISIBILITY.

* THESE STATIONS ARE NOT UNDER NWS QUALITY CONTROL. THEY ALSO MAY NOT
  REPORT WEATHER SUCH AS PRECIPITATION OR FOG.

ILZ001-002-007-009-015-016-024-050100-
NORTHWEST ILLINOIS

CITY           SKY/WX    TMP DP  RH WIND       PRES   REMARKS
MOLINE         CLOUDY    73  59  61 E12       30.07R
6HR MIN TEMP:  73; 6HR MAX TEMP:  77;

STERLING*      MOCLDY    72  61  68 E9        30.10R
SAVANNA*       PTSUNNY   74  58  56 E7        30.08F
$$

ILZ003-004-008-010-011-017-018-050100-
NORTH CENTRAL ILLINOIS

CITY           SKY/WX    TMP DP  RH WIND       PRES   REMARKS
ROCKFORD       MOCLDY    72  57  59 NE8       30.12S
6HR MIN TEMP:  70; 6HR MAX TEMP:  76;

FREEPORT*      CLOUDY    70  58  65 E6        30.13R
ROCHELLE*      MOCLDY    71  57  60 E7        30.11S
DE KALB*       PTCLDY    66  57  73 E13G18    30.13R
PERU*          PTCLDY    72  59  62 E6        30.10S
$$

ILZ005-006-012>014-019>023-050100-
NORTHEAST ILLINOIS

CITY           SKY/WX    TMP DP  RH WIND       PRES   REMARKS
CHICAGO-OHARE  MOCLDY    62  46  55 NE9       30.15R
6HR MIN TEMP:  62; 6HR MAX TEMP:  74; 6HR PCP: TRACE;

CHICAGO-MIDWAY MOCLDY    62  53  72 NE10      30.15R
6HR MIN TEMP:  62; 6HR MAX TEMP:  74;

AURORA         PTCLDY    69  56  62 E17       30.12R
6HR MIN TEMP:  68; 6HR MAX TEMP:  75;

LANSING*       MOCLDY    62  53  72 NE8       30.14S
JOLIET*        PTCLDY    68  58  71 E12       30.13R
WAUKEGAN       PTCLDY    52  40  63 NE9       30.17R
6HR MIN TEMP:  52; 6HR MAX TEMP:  69;

DUPAGE AIRPORT PTCLDY    65  53  65 E15       30.13R
6HR MIN TEMP:  65; 6HR MAX TEMP:  72;

KANKAKEE*      MOCLDY    69  63  81 E9        30.13R
WHEELING       PTCLDY    58  47  66 E8        30.17S
6HR MIN TEMP:  58; 6HR MAX TEMP:  75;

MORRIS*        PTCLDY    73  60  64 E8        30.09S
ROMEOVILLE*    PTCLDY    65  55  70 E13       30.13R
NORTHERLY ISL    N/A     51  48  89 N8          N/A
$$

LMZ740>746-050100-
SOUTHERN LAKE MICHIGAN

STATION/POSITION SKY/WX   TEMP    WIND        PRES    VSBY  WAVE
                          AIR SEA DIR/SP/G                  HT/PER
                          (F)     (DEG/KT/KT) (MB)    (MI)  (FT/S)
HARRISON CRIB              50      10/  9/ 11   N/A
BURNHAM HARBOR             51     340/  5/  8   N/A
CALUMET HARBOR             53      40/  3/  5   N/A
BURNS HARBOR               54      80/ 11/ 13 1021.0S
MICHIGAN CITY              54      40/ 13/ 14   N/A
MICHIGAN CITY 6N           51 50   80/  6/  8   N/A           1
ST. JOSEPH                 50 49   20/  8/  8   N/A           1
$$

ILZ025>027-034>036-040-047-049-050-058-095>099-050100-
WEST-CENTRAL ILLINOIS

CITY           SKY/WX    TMP DP  RH WIND       PRES   REMARKS
QUINCY         CLOUDY    76  61  59 W3        30.05R
GALESBURG*     RAIN      69  64  82 E6        30.07F
MACOMB*        TSTM      64  62  91 SE7       30.09R
JACKSONVILLE*  MOCLDY    82  59  45 S8        30.05R HX  82
PITTSFIELD*    SUNNY     80  58  46 S3        30.06R HX  80
$$

ILZ028>032-037-038-041>044-048-051>054-059>061-050100-
CENTRAL ILLINOIS

CITY           SKY/WX    TMP DP  RH WIND       PRES   REMARKS
PONTIAC        PTCLDY    71  65  83 E8        30.12R
BLOOMINGTON    MOCLDY    72  66  81 E7        30.12R
DECATUR        CLOUDY    78  58  49 S3        30.08S
PEORIA         CLOUDY    74  62  66 E6        30.08R
6HR MIN TEMP:  71; 6HR MAX TEMP:  78; 6HR PCP: TRACE;

LACON*         PTCLDY    72  61  68 E6        30.08S
LINCOLN*       CLOUDY    76  65  68 NE7       30.05R
SPRINGFIELD    MOCLDY    80  55  42 SW3       30.06S HX  80
6HR MIN TEMP:  80; 6HR MAX TEMP:  84;

TAYLORVILLE    CLOUDY    79  55  44 S5        30.06F
$$

ILZ033-039-045-046-055>057-062-063-050100-
EAST-CENTRAL ILLINOIS

CITY           SKY/WX    TMP DP  RH WIND       PRES   REMARKS
CHAMPAIGN      MOCLDY    71  63  75 NE12      30.10F
DANVILLE*      CLOUDY    64  62  91 E6        30.10S
RANTOUL*       MOCLDY    72  66  82 E10       30.11S
MATTOON        MOCLDY    78  56  46 S6        30.09S
PARIS*         CLOUDY    79  57  46 SW8       30.11S
$$

ILZ079-100>102-050100-
SOUTHWEST ILLINOIS

CITY           SKY/WX    TMP DP  RH WIND       PRES   REMARKS
ALTON          PTCLDY    81 N/A N/A S8        30.05
BELLEVILLE     CLEAR     81  57  44 VRB5      30.04F HX  81
CAHOKIA*       CLEAR     83  55  38 S9G17     30.03F HX  82
SPARTA*        CLEAR     79  56  44 S8        30.08F HX  80
$$

ILZ064>066-069>071-074>076-080>082-084>086-088>090-092>094-050100-
SOUTH-CENTRAL ILLINOIS

CITY           SKY/WX    TMP DP  RH WIND       PRES   REMARKS
CARBONDALE     CLEAR     78  55  44 S10       30.09S
6HR MIN TEMP:  78; 6HR MAX TEMP:  85;

CAIRO*         CLEAR     81  53  38 S10G18    30.11F HX  80
EFFINGHAM*     MOCLDY    78  51  38 S6        30.10S
MARION         CLEAR     79  57  47 S9        30.10F HX  80
MT. VERNON     CLEAR    N/A N/A N/A S9        30.09F
CENTRALIA*     CLEAR     81  53  37 S10       30.08S HX  80
SALEM*         PTCLDY    83  52  33 S9        30.09S HX  82
METROPOLIS*    CLEAR     80  55  41 S8        30.12S HX  80
$$

ILZ067-068-072-073-078-083-087-091-050100-
SOUTHEAST ILLINOIS

CITY           SKY/WX    TMP DP  RH WIND       PRES   REMARKS
LAWRENCEVILLE  PTCLDY    78  57  48 S9        30.11S
FLORA*         PTCLDY    80  55  42 S9        30.10S HX  80
FAIRFIELD*     CLEAR     81  56  42 S9G17     30.09S HX  81
HARRISBURG*    CLEAR     80  52  37 S10       30.12F HX  80
ROBINSON*      PTCLDY    79  53  41 SW8       30.11F
CARMI*         CLEAR     79  48  33 S10       30.11S
$$

ABBREVIATIONS USED IN REMARKS
   TC - TEMPERATURE IN CELSIUS
  WCI - WIND CHILL INDEX
   HX - HEAT INDEX
  VSB - VISIBILITY
$$



USA.gov is the U.S. government's official web portal to all federal, state and local government web resources and services.